Owosso, MI

5:19 PM EST on November 18, 2017 (GMT -0500)
Owosso

Weather History for KRNP - December, 2011

Change the Weather History Date:

Sunday, December 25, 2011

  Actual Average (KFNT) Record (KFNT)
Temperature  
Mean Temperature 36 °F -  
Max Temperature 41 °F 29 °F 65 °F (1982)
Min Temperature 32 °F 15 °F -13 °F (2000)
Degree Days  
Heating Degree Days 28    
Moisture  
Dew Point 29 °F    
Average Humidity 81    
Maximum Humidity 93    
Minimum Humidity 65    
Precipitation  
Precipitation 0.00 in - - ()
Sea Level Pressure  
Sea Level Pressure 29.99 in    
Wind  
Wind Speed 11 mph (WSW)    
Max Wind Speed 23 mph    
Max Gust Speed 32 mph    
Visibility 10 miles    
Events      
Averages and records for this station are not official NWS values.
T = Trace of Precipitation, MM = Missing Value Source: NWS Daily Summary

Daily Weather History Graph

Daily Weather History Graph

Search for Another Location

Airport or City:

Trip Planner

Search our weather history database for the weather conditions in past years. The results will help you decide how hot, cold, wet, or windy it might be!

Date:

Astronomy

Dec. 25, 2011 Rise Set
Actual Time 8:06 AM EST 5:06 PM EST
Civil Twilight 7:33 AM EST 5:39 PM EST
Nautical Twilight 6:57 AM EST 6:15 PM EST
Astronomical Twilight 6:23 AM EST 6:49 PM EST
Moon 8:42 AM EST (12/25) 6:28 PM EST (12/25)
Length of Visible Light 10h 05m
Length of Day
9h 00m
New Moon, 1% of the Moon is Illuminated
Dec 25
New Moon
Jan 1
First Quarter
Jan 9
Full
Jan 16
Last Quarter
Jan 23
New

Hourly Weather History & Observations

Time (EST) Temp. Windchill Dew Point Humidity Pressure Visibility Wind Dir Wind Speed Gust Speed Precip Events Conditions
12:35 AM 32.0 °F 24.2 °F 28.4 °F 87% 30.07 in 10.0 mi SW 9.2 mph 17.3 mph N/A   Scattered Clouds
12:55 AM 32.0 °F 23.0 °F 28.4 °F 87% 30.07 in 10.0 mi SW 11.5 mph 17.3 mph N/A   Clear
1:14 AM 32.0 °F 23.0 °F 28.4 °F 87% 30.06 in 10.0 mi SW 11.5 mph 18.4 mph N/A   Clear
1:35 AM 32.0 °F 23.6 °F 28.4 °F 87% 30.06 in 10.0 mi SW 10.4 mph 20.7 mph N/A   Clear
1:55 AM 32.0 °F 24.2 °F 28.4 °F 87% 30.05 in 10.0 mi SSW 9.2 mph - N/A   Clear
2:15 AM 32.0 °F 23.6 °F 30.2 °F 93% 30.04 in 10.0 mi SW 10.4 mph 17.3 mph N/A   Clear
2:35 AM 32.0 °F 23.0 °F 30.2 °F 93% 30.04 in 10.0 mi SW 11.5 mph 16.1 mph N/A   Scattered Clouds
2:55 AM 32.0 °F 23.0 °F 30.2 °F 93% 30.02 in 10.0 mi SW 11.5 mph 20.7 mph N/A   Scattered Clouds
3:15 AM 33.8 °F 25.3 °F 30.2 °F 87% 30.02 in 10.0 mi SW 11.5 mph 16.1 mph N/A   Clear
3:35 AM 32.0 °F 24.8 °F 30.2 °F 93% 30.01 in 10.0 mi SW 8.1 mph 17.3 mph N/A   Clear
3:54 AM 33.8 °F 25.8 °F 30.2 °F 87% 30.00 in 10.0 mi SW 10.4 mph 17.3 mph N/A   Clear
4:15 AM 32.0 °F 22.5 °F 30.2 °F 93% 29.99 in 10.0 mi SW 12.7 mph 18.4 mph N/A   Clear
4:35 AM 32.0 °F 24.8 °F 30.2 °F 93% 29.99 in 10.0 mi SW 8.1 mph - N/A   Clear
4:54 AM 32.0 °F 24.8 °F 30.2 °F 93% 29.98 in 10.0 mi SSW 8.1 mph - N/A   Clear
5:15 AM 32.0 °F 25.6 °F 30.2 °F 93% 29.97 in 10.0 mi South 6.9 mph - N/A   Clear
5:35 AM 32.0 °F 27.5 °F 28.4 °F 87% 29.98 in 10.0 mi SSW 4.6 mph - N/A   Clear
5:54 AM 32.0 °F 24.8 °F 28.4 °F 87% 29.96 in 10.0 mi South 8.1 mph - N/A   Clear
6:15 AM 32.0 °F 24.2 °F 28.4 °F 87% 29.95 in 10.0 mi South 9.2 mph - N/A   Clear
6:34 AM 32.0 °F 24.8 °F 28.4 °F 87% 29.94 in 10.0 mi SSW 8.1 mph - N/A   Clear
6:55 AM 32.0 °F 24.2 °F 28.4 °F 87% 29.92 in 10.0 mi South 9.2 mph 16.1 mph N/A   Clear
7:15 AM 32.0 °F 27.5 °F 28.4 °F 87% 29.93 in 10.0 mi SW 4.6 mph - N/A   Clear
7:34 AM 32.0 °F 25.6 °F 28.4 °F 87% 29.93 in 10.0 mi SW 6.9 mph - N/A   Clear
7:55 AM 32.0 °F 26.4 °F 28.4 °F 87% 29.93 in 10.0 mi SW 5.8 mph - N/A   Clear
8:14 AM 32.0 °F 27.5 °F 28.4 °F 87% 29.93 in 10.0 mi SW 4.6 mph - N/A   Clear
8:35 AM 32.0 °F 26.4 °F 28.4 °F 87% 29.90 in 10.0 mi South 5.8 mph - N/A   Clear
8:55 AM 32.0 °F 26.4 °F 28.4 °F 87% 29.91 in 10.0 mi SW 5.8 mph - N/A   Clear
9:15 AM 33.8 °F 25.8 °F 28.4 °F 81% 29.91 in 10.0 mi SW 10.4 mph 16.1 mph N/A   Clear
9:35 AM 35.6 °F 28.0 °F 28.4 °F 75% 29.91 in 10.0 mi SW 10.4 mph 18.4 mph N/A   Clear
9:54 AM 35.6 °F 27.5 °F 28.4 °F 75% 29.90 in 10.0 mi SW 11.5 mph 19.6 mph N/A   Clear
10:15 AM 35.6 °F 27.1 °F 28.4 °F 75% 29.89 in 10.0 mi SW 12.7 mph 19.6 mph N/A   Clear
10:34 AM 37.4 °F 28.2 °F 30.2 °F 75% 29.91 in 10.0 mi WSW 16.1 mph 23.0 mph N/A   Clear
10:55 AM 37.4 °F 27.5 °F 30.2 °F 75% 29.92 in 10.0 mi WSW 18.4 mph 28.8 mph N/A   Clear
11:15 AM 39.2 °F 30.2 °F 30.2 °F 70% 29.92 in 10.0 mi WSW 17.3 mph 29.9 mph N/A   Mostly Cloudy
11:34 AM 37.4 °F 27.8 °F 32.0 °F 81% 29.91 in 10.0 mi WSW 17.3 mph 21.9 mph N/A   Overcast
11:55 AM 37.4 °F 27.5 °F 32.0 °F 81% 29.90 in 10.0 mi WSW 18.4 mph 25.3 mph N/A   Overcast
12:15 PM 37.4 °F 28.2 °F 32.0 °F 81% 29.89 in 10.0 mi WSW 16.1 mph 20.7 mph N/A   Overcast
12:34 PM 39.2 °F 31.6 °F 32.0 °F 75% 29.89 in 10.0 mi WSW 12.7 mph 20.7 mph N/A   Mostly Cloudy
12:55 PM 39.2 °F 32.0 °F 32.0 °F 75% 29.89 in 10.0 mi West 11.5 mph 19.6 mph N/A   Mostly Cloudy
1:15 PM 41.0 °F 31.9 °F 32.0 °F 70% 29.89 in 10.0 mi West 19.6 mph 26.5 mph N/A   Overcast
1:34 PM 39.2 °F 30.2 °F 30.2 °F 70% 29.89 in 10.0 mi West 17.3 mph 32.2 mph N/A   Overcast
1:55 PM 41.0 °F 31.1 °F 30.2 °F 65% 29.90 in 10.0 mi West 23.0 mph 31.1 mph N/A   Overcast
2:15 PM 39.2 °F 29.3 °F 28.4 °F 65% 29.92 in 10.0 mi West 20.7 mph 29.9 mph N/A   Overcast
2:34 PM 37.4 °F 27.2 °F 28.4 °F 70% 29.93 in 10.0 mi West 19.6 mph 27.6 mph N/A   Overcast
2:55 PM 37.4 °F 28.2 °F 28.4 °F 70% 29.94 in 10.0 mi West 16.1 mph 25.3 mph N/A   Overcast
3:14 PM 37.4 °F 28.5 °F 28.4 °F 70% 29.96 in 10.0 mi WNW 15.0 mph 25.3 mph N/A   Overcast
3:35 PM 37.4 °F 29.8 °F 28.4 °F 70% 29.97 in 10.0 mi West 11.5 mph 20.7 mph N/A   Overcast
3:55 PM 37.4 °F 28.9 °F 28.4 °F 70% 29.99 in 10.0 mi West 13.8 mph 24.2 mph N/A   Overcast
4:35 PM 35.6 °F 26.2 °F 28.4 °F 75% 30.02 in 10.0 mi WNW 15.0 mph 19.6 mph N/A   Overcast
4:55 PM 35.6 °F 26.2 °F 28.4 °F 75% 30.03 in 10.0 mi West 15.0 mph 25.3 mph N/A   Overcast
5:14 PM 35.6 °F 25.9 °F 28.4 °F 75% 30.05 in 10.0 mi West 16.1 mph 24.2 mph N/A   Overcast
5:35 PM 35.6 °F 27.1 °F 28.4 °F 75% 30.07 in 10.0 mi WNW 12.7 mph 20.7 mph N/A   Overcast
5:55 PM 35.6 °F 26.6 °F 28.4 °F 75% 30.08 in 10.0 mi West 13.8 mph 20.7 mph N/A   Overcast
6:14 PM 35.6 °F 25.9 °F 28.4 °F 75% 30.09 in 10.0 mi West 16.1 mph - N/A   Overcast
6:35 PM 35.6 °F 26.6 °F 30.2 °F 81% 30.10 in 10.0 mi West 13.8 mph - N/A   Overcast
6:55 PM 35.6 °F 28.0 °F 30.2 °F 81% 30.11 in 10.0 mi WNW 10.4 mph 20.7 mph N/A   Overcast
7:15 PM 35.6 °F 25.9 °F 30.2 °F 81% 30.11 in 10.0 mi WNW 16.1 mph 19.6 mph N/A   Overcast
7:35 PM 35.6 °F 27.1 °F 30.2 °F 81% 30.12 in 10.0 mi WNW 12.7 mph 18.4 mph N/A   Overcast
7:54 PM 35.6 °F 28.6 °F 30.2 °F 81% 30.13 in 10.0 mi WNW 9.2 mph 18.4 mph N/A   Overcast
8:15 PM 35.6 °F 28.6 °F 30.2 °F 81% 30.14 in 10.0 mi West 9.2 mph - N/A   Overcast
8:35 PM 35.6 °F 28.6 °F 30.2 °F 81% 30.15 in 10.0 mi WNW 9.2 mph - N/A   Overcast
8:55 PM 35.6 °F 27.5 °F 30.2 °F 81% 30.16 in 10.0 mi WNW 11.5 mph 16.1 mph N/A   Overcast
9:15 PM 35.6 °F 28.6 °F 30.2 °F 81% 30.16 in 10.0 mi WNW 9.2 mph - N/A   Overcast
9:34 PM 35.6 °F 28.6 °F 30.2 °F 81% 30.17 in 10.0 mi WNW 9.2 mph - N/A   Overcast
10:15 PM 35.6 °F 29.2 °F 30.2 °F 81% 30.18 in 10.0 mi West 8.1 mph - N/A   Overcast
10:34 PM 35.6 °F 30.7 °F 30.2 °F 81% 30.18 in 10.0 mi WNW 5.8 mph - N/A   Overcast
10:55 PM 35.6 °F 29.9 °F 30.2 °F 81% 30.18 in 10.0 mi West 6.9 mph - N/A   Overcast
11:15 PM 35.6 °F 27.5 °F 28.4 °F 75% 30.18 in 10.0 mi WNW 11.5 mph - N/A   Overcast
11:34 PM 35.6 °F 29.2 °F 26.6 °F 70% 30.19 in 10.0 mi WNW 8.1 mph 17.3 mph N/A   Overcast
11:55 PM 35.6 °F 29.9 °F 28.4 °F 75% 30.20 in 10.0 mi WNW 6.9 mph - N/A   Overcast